sat.trackr.live / text

‹ back to catalog

STARLINK-37410

NORAD 68823 · 2026-089X

PAYLOAD ACTIVE UNKNOWN

§ Identity

Operator
Country
US
Launch date
2026-04-23
Launch site
AFWTR
Launch vehicle
Mass (kg)
RCS (m²)

Purposes: comms

External: N2YO · Heavens-Above · Gunter

§ Orbital elements

Epoch: 2026-05-25T02:29:27.570048Z

Period
91.42 min
Inclination
97.2837°
Eccentricity
0.0001887
Mean motion
15.75180701 rev/d
Perigee alt
342.8 km
Apogee alt
345.4 km
Semi-major
6,722.3 km
B*
1.2176e-3
RAAN
351.7750°
Arg perigee
88.0392°
Mean anomaly
272.1090°
Rev number
506

§ Raw data

STARLINK-374101 68823U 26089X   26145.10379132  .00185407  00000+0  12176-2 0  99992 68823  97.2837 351.7750 0001887  88.0392 272.1090 15.75180701  5064

JSON: /api/v1/satellites/68823 · /tle

For live sub-satellite position, see the globe view (requires WebGL).

§ Visibility from observer

Set your observer location to see the next 7 days of passes ≥ 10°. The values pass through the URL so the page stays shareable.

No JS? Fill the form by hand. The geolocation button needs JavaScript.